Regional Weather Roundup
Issued by NWS

Home | Current Version | Previous Version | Graphics & Text | Print | Product List | Glossary On
Versions: 1 2 3 4 5 6 7 8 9 10 11 12 13 14 15 16 17 18 19 20 21 22 23 24 25 26 27 28 29 30 31 32 33 34 35 36 37 38 39 40 41 42 43 44 45 46 47 48 49 50
000
ASUS43 KLSX 310159
RWRMO

WEATHER SUMMARY FOR MISSOURI
NATIONAL WEATHER SERVICE SPRINGFIELD MO
900 PM CDT SAT AUG 30 2014

NOTE: "FAIR" INDICATES FEW OR NO CLOUDS BELOW 12,000 FEET WITH NO
       SIGNIFICANT WEATHER AND/OR OBSTRUCTIONS TO VISIBILITY.
       CURRENT SKY AND/OR WEATHER CONDITIONS ARE NOT AVAILABLE FOR
       CHILLICOTHE AND FARMINGTON.

MOZ001>031-035>038-043-044-053-054-310300-
...NORTHERN AND WESTERN MISSOURI...

CITY           SKY/WX    TMP DP  RH WIND       PRES   REMARKS
KANSAS CTY INT CLEAR     77  67  71 SE6       29.90S
KANSAS C DTWN  CLEAR     81  68  64 E5        29.89R
LEE`S SUMMIT   CLEAR     78  68  71 E5        29.91S
ST JOSEPH      CLEAR     72  68  87 CALM      29.89R
KIRKSVILLE     CLEAR     71  69  93 CALM      29.92R

$$
MOZ066>068-077>081-088>096-101>105-310300-
...SOUTHWEST MISSOURI...

CITY           SKY/WX    TMP DP  RH WIND       PRES   REMARKS
SPRINGFIELD    PTCLDY    71  66  84 SE9       29.94R
JOPLIN         CLEAR     80  67  64 S9        29.91R

$$
MOZ032>034-039>042-045>050-055>058-069>072-310300-
...CENTRAL MISSOURI...

CITY           SKY/WX    TMP DP  RH WIND       PRES   REMARKS
COLUMBIA       MOCLDY    74  70  87 S5        29.92R
JEFFERSON CITY MOCLDY    74  69  85 E5        29.91R
ROLLA          CLOUDY    70  67  90 S7        29.93R
SEDALIA        CLEAR     77  67  71 S6        29.92R
OSAGE BEACH    MOCLDY    75  66  73 S6        29.93R

$$
MOZ051-052-059>065-310300-
...EAST CENTRAL MISSOURI...

CITY           SKY/WX    TMP DP  RH WIND       PRES   REMARKS
ST LOUIS INTL  MOCLDY    79  71  76 S9        29.93R
SPIRIT OF STL  MOCLDY    77  71  82 S8        29.91R
ST CHARLES     MOCLDY    77  72  84 S6        29.91R

$$
MOZ072>076-082>087-097>100-106>115-310300-
...SOUTH CENTRAL AND SOUTHEAST MISSOURI...

CITY           SKY/WX    TMP DP  RH WIND       PRES   REMARKS
CAPE GIRARDEAU CLOUDY    74  70  87 S9        29.97S
FARMINGTON     CLOUDY    73  70  88 S9G16     29.99R
POPLAR BLUFF   CLOUDY    75  70  84 S6        29.95F
WEST PLAINS    PTCLDY    76  69  79 S3        29.99R

$$


USA.gov is the U.S. government's official web portal to all federal, state and local government web resources and services.